Houston Hull, TX

7:39 PM CST on November 12, 2019 (GMT -0600)
Sugar Land Municipal-Hull

Weather History for KSGR - September, 2019

Change the Weather History Date:

Monday, September 30, 2019

  Actual Average Record
Temperature  
Mean Temperature 86 °F -  
Max Temperature 93 °F 86 °F 96 °F (1956)
Min Temperature 80 °F 61 °F 50 °F (1967)
Cooling Degree Days 20    
Growing Degree Days 36 (Base 50)    
Moisture  
Dew Point 77 °F    
Average Humidity 80    
Maximum Humidity 94    
Minimum Humidity 61    
Precipitation  
Precipitation 0.00 in - - ()
Sea Level Pressure  
Sea Level Pressure 30.00 in    
Wind  
Wind Speed 9 mph (SE)    
Max Wind Speed 17 mph    
Max Gust Speed 21 mph    
Visibility 10 miles    
Events      
Averages and records for this station are not official NWS values.
T = Trace of Precipitation, MM = Missing Value Source: NWS Daily Summary

Daily Weather History Graph

Daily Weather History Graph

Search for Another Location

Airport or City:

Astronomy

Sep. 30, 2019 Rise Set
Actual Time 7:15 AM CDT 7:09 PM CDT
Civil Twilight 6:51 AM CDT 7:33 PM CDT
Nautical Twilight 6:23 AM CDT 8:00 PM CDT
Astronomical Twilight 5:56 AM CDT 8:28 PM CDT
Moon 9:13 AM CDT (9/30) 8:55 PM CDT (9/30)
Length of Visible Light 12h 41m
Length of Day
11h 54m
Waxing Crescent, 6% of the Moon is Illuminated
Sep 30
Waxing Crescent
Oct 5
First Quarter
Oct 13
Full
Oct 21
Last Quarter
Oct 27
New

Hourly Weather History & Observations

Time (CDT) Temp. Heat Index Dew Point Humidity Pressure Visibility Wind Dir Wind Speed Gust Speed Precip Events Conditions
12:53 AM 81.0 °F 87.9 °F 77.0 °F 88% 30.01 in 10.0 mi ESE 9.2 mph - N/A   Clear
1:53 AM 80.1 °F 86.4 °F 78.1 °F 94% 30.02 in 10.0 mi ESE 8.1 mph - N/A   Clear
2:53 AM 80.1 °F 86.4 °F 78.1 °F 94% 30.01 in 10.0 mi ESE 6.9 mph - N/A   Partly Cloudy
3:53 AM 80.1 °F 86.4 °F 78.1 °F 94% 30.00 in 10.0 mi ESE 5.8 mph - N/A   Clear
4:53 AM 81.0 °F 88.6 °F 78.1 °F 91% 30.00 in 10.0 mi ESE 5.8 mph - N/A   Partly Cloudy
5:37 AM 81.0 °F 88.6 °F 78.1 °F 91% 30.00 in 10.0 mi ESE 5.8 mph - N/A   Mostly Cloudy
5:53 AM 81.0 °F 88.6 °F 78.1 °F 91% 30.01 in 10.0 mi ESE 5.8 mph - N/A   Scattered Clouds
6:53 AM 80.1 °F 86.4 °F 78.1 °F 94% 30.01 in 10.0 mi ESE 5.8 mph - N/A   Partly Cloudy
7:53 AM 81.0 °F 89.2 °F 79.0 °F 94% 30.02 in 10.0 mi ESE 5.8 mph - N/A   Partly Cloudy
8:53 AM 82.9 °F 93.8 °F 79.0 °F 88% 30.02 in 10.0 mi SE 9.2 mph - N/A   Clear
9:38 AM 84.9 °F 97.5 °F 79.0 °F 82% 30.03 in 10.0 mi SSE 11.5 mph - N/A   Mostly Cloudy
9:53 AM 84.9 °F 97.5 °F 79.0 °F 82% 30.04 in 10.0 mi SSE 13.8 mph - N/A   Mostly Cloudy
10:23 AM 88.0 °F 103.1 °F 79.0 °F 75% 30.04 in 10.0 mi SE 15.0 mph - N/A   Scattered Clouds
10:53 AM 89.1 °F 103.2 °F 78.1 °F 70% 30.04 in 10.0 mi SSE 15.0 mph - N/A   Scattered Clouds
11:53 AM 89.1 °F 103.2 °F 78.1 °F 70% 30.04 in 10.0 mi South 11.5 mph - N/A   Scattered Clouds
12:53 PM 91.0 °F 106.2 °F 78.1 °F 66% 30.03 in 10.0 mi SE 10.4 mph - N/A   Mostly Cloudy
1:53 PM 91.0 °F 104.2 °F 77.0 °F 63% 30.00 in 10.0 mi SE 12.7 mph - N/A   Mostly Cloudy
2:53 PM 91.0 °F 102.9 °F 75.9 °F 61% 29.98 in 10.0 mi SE 13.8 mph - N/A   Mostly Cloudy
3:53 PM 90.0 °F 100.2 °F 75.0 °F 61% 29.96 in 10.0 mi SSE 17.3 mph - N/A   Scattered Clouds
4:53 PM 90.0 °F 100.2 °F 75.0 °F 61% 29.95 in 10.0 mi ESE 11.5 mph - N/A   Partly Cloudy
5:53 PM 89.1 °F 99.1 °F 75.0 °F 63% 29.94 in 10.0 mi ESE 12.7 mph - N/A   Partly Cloudy
6:53 PM 86.0 °F 95.1 °F 75.0 °F 70% 29.95 in 10.0 mi SE 10.4 mph - N/A   Clear
7:53 PM 84.0 °F 92.6 °F 75.9 °F 76% 29.96 in 10.0 mi SE 10.4 mph - N/A   Clear
8:53 PM 82.9 °F 91.8 °F 77.0 °F 82% 29.96 in 10.0 mi SE 11.5 mph 20.7 mph N/A   Clear
9:53 PM 82.0 °F 89.4 °F 75.9 °F 82% 29.98 in 10.0 mi SE 10.4 mph - N/A   Clear
10:53 PM 81.0 °F 87.3 °F 75.9 °F 85% 29.98 in 10.0 mi ESE 10.4 mph - N/A   Mostly Cloudy
11:53 PM 81.0 °F 87.3 °F 75.9 °F 85% 29.99 in 10.0 mi ESE 10.4 mph - N/A   Clear